Flag for Greece Weather past 2 weeks in Nea Smyrni, Greece

Now
90 °F

Sunny.


Feels Like: 88 °F
Forecast: 71 / 88 °F
Wind: 12 mph from Southwest

Location: Eleftherios Venizelos International Airport

Current Time: Jul 22, 2014 at 7:20:06 PM

Latest Report: Jul 22, 2014 at 6:50 PM


Visibility: 10 mi

Pressure: 29.71 "Hg

Humidity: 33%

Dew point: 57 °F

Location of Nea SmyrniLocation

Historic Weather in Nea Smyrni — Graph

°F

Nea Smyrni temperature yesterday

Maximum temperature yesterday: 90 °F (at 2:50 PM)
Minimum temperature yesterday: 73 °F (at 11:20 PM)
Average temperature yesterday: 82 °F

Past Weeks' High & Low Weather Summary

 TemperatureHumidityPressure
High97 °F (Jul 10, 1:50 PM)89% (Jul 19, 10:50 PM)29.98 "Hg (Jul 19, 10:50 PM)
Low64 °F (Jul 13, 6:20 AM)12% (Jul 10, 1:20 PM)29.62 "Hg (Jul 11, 2:20 PM)
Average79 °F48%29.83 "Hg
* Reported Jul 7 5:20 PM — Jul 22 5:50 PM, Nea Smyrni, Weather by CustomWeather, © 2014

Note: Actual official high and low records may vary slightly from our data, if they occured in-between our weather recording intervals... More about our weather records

Advertising

Nea Smyrni weather history for previous 24 hours

 ConditionsComfort  
Time TempWeatherWind HumidityBarometerVisibility
5:50 PM
Jul 22
90 °FSunny.15 mph31%29.71 "Hg10 mi
5:20 PM91 °FSunny.16 mph28%29.71 "Hg10 mi
4:50 PM91 °FSunny.16 mph28%29.71 "Hg10 mi
4:20 PM91 °FSunny.17 mph30%29.71 "Hg10 mi
3:50 PM91 °FSunny.14 mph32%29.71 "Hg10 mi
3:20 PM93 °FPassing clouds.6 mph28%29.74 "HgN/A
2:50 PM91 °FSunny.12 mph32%29.74 "Hg10 mi
2:20 PM91 °FPassing clouds.9 mph34%29.74 "HgN/A
1:50 PM91 °FPassing clouds.9 mph34%29.74 "HgN/A
1:20 PM91 °FPassing clouds.9 mph32%29.77 "HgN/A
12:50 PM90 °FPassing clouds.8 mph36%29.77 "HgN/A
12:20 PM90 °FPassing clouds.8 mph33%29.77 "HgN/A
11:50 AM90 °FPassing clouds.7 mph38%29.77 "HgN/A
11:20 AM90 °FPassing clouds.6 mph38%29.77 "HgN/A
10:50 AM88 °FSunny.3 mph35%29.77 "Hg10 mi
10:20 AM86 °FSunny.2 mph35%29.80 "Hg10 mi
9:50 AM86 °FSunny.2 mph35%29.80 "Hg10 mi
9:20 AM84 °FSunny.1 mph40%29.80 "Hg10 mi
8:50 AM81 °FSunny.No wind51%29.80 "Hg10 mi
8:20 AM77 °FSunny.No wind61%29.80 "Hg10 mi
7:50 AM75 °FSunny.No wind61%29.80 "Hg10 mi
7:20 AM73 °FSunny.1 mph65%29.80 "Hg10 mi
6:50 AM72 °FClear.1 mph69%29.80 "Hg10 mi
6:20 AM66 °FClear.5 mph83%29.80 "Hg10 mi
5:50 AM68 °FClear.3 mph78%29.80 "Hg10 mi
5:20 AM68 °FClear.3 mph78%29.80 "Hg10 mi
4:50 AM72 °FClear.No wind69%29.80 "Hg10 mi
4:20 AM72 °FClear.2 mph69%29.80 "Hg10 mi
3:50 AM72 °FClear.2 mph65%29.80 "Hg10 mi
3:20 AM73 °FClear.1 mph61%29.80 "Hg10 mi
2:50 AM72 °FClear.No wind65%29.83 "Hg10 mi
2:20 AM73 °FClear.2 mph61%29.83 "Hg10 mi
1:50 AM72 °FClear.3 mph65%29.83 "Hg10 mi
1:20 AM73 °FClear.3 mph61%29.83 "Hg10 mi
12:50 AM72 °FClear.3 mph65%29.83 "Hg10 mi
12:20 AM73 °FClear.2 mph61%29.83 "Hg10 mi
11:50 PM
Jul 21
73 °FClear.3 mph61%29.86 "Hg10 mi
11:20 PM73 °FClear.7 mph61%29.86 "Hg10 mi
10:50 PM75 °FClear.1 mph54%29.86 "Hg10 mi
10:20 PM77 °FClear.1 mph54%29.86 "Hg10 mi
9:50 PM77 °FClear.3 mph51%29.86 "Hg10 mi
9:20 PM79 °FSunny.1 mph45%29.86 "Hg10 mi
8:50 PM81 °FSunny.6 mph42%29.86 "Hg10 mi
8:20 PM82 °FSunny.7 mph37%29.83 "Hg10 mi
7:50 PM84 °FSunny.10 mph35%29.83 "Hg10 mi
7:20 PM84 °FPassing clouds.8 mph37%29.83 "HgN/A
Weather by CustomWeather, © 2014

See weather overviewHow to use our weather pages